Location: Hurstbourne Priors
(51.2000°N, 1.3667°W)
Time: 22:36:05
(UTC+00:00)

Altair - Pass Details

Date: 13 April 2021
Orbit: 1501 x 1683 km, 47.2° (Epoch: 13 May)

Event Time Altitude Azimuth Distance (km) Brightness Sun altitude
Rises 05:51:23 0° 186° (S) 4,847 10.0 4.8°
Reaches altitude 10° 05:55:44 10° 170° (S) 3,833 9.7 5.5°
Maximum altitude 06:01:54 19° 130° (SE) 3,125 9.9 6.5°
Drops below altitude 10° 06:07:57 10° 90° (E) 3,749 12.5 7.4°
Sets 06:12:06 0° 74° (ENE) 4,707 12.1 8.1°
